Location: Greenhawk Observatory
(37.3417°N, 122.0298°W)
Time: 11:51:52
(UTC-07:00)

Daily predictions for brighter satellites

Satellite Brightness Start Highest point End
(mag) Time Altitude Azimuth Time Altitude Azimuth Time Altitude Azimuth
Cosmos 1892 Rocket 3.6 19:59:44 10° N 20:04:12 65° E 20:08:38 10° SSE
Cosmos 1455 Rocket 3.2 20:01:00 10° S 20:05:12 52° E 20:09:26 10° NNE
Meteor 2-14 Rocket 4.5 19:59:48 10° S 20:05:54 70° E 20:12:00 10° NNE
Cosmos 2278 3.7 20:02:47 10° SSW 20:08:27 80° ESE 20:14:10 10° NNE
Cosmos 1570 Rocket 4.2 20:06:29 10° SSW 20:11:47 83° WNW 20:17:05 10° NNE
Meteor 2-4 Rocket 4.1 20:09:34 10° NNW 20:15:27 76° W 20:21:22 10° S
H-2A R/B 3.6 20:12:06 10° SE 20:15:34 32° ENE 20:19:06 10° N
Resurs 1-3 3.6 20:14:53 10° SSE 20:19:16 85° ENE 20:23:40 10° N
Lacrosse 5 3.3 20:15:45 10° NNW 20:19:54 25° NE 20:24:02 10° E
Cosmos 1980 Rocket 3.3 20:18:01 10° SSE 20:22:07 21° E 20:26:14 10° NE
Cosmos 2369 3.8 20:17:20 10° SSW 20:23:00 87° WNW 20:28:44 10° NNE
Cosmos 1975 3.3 20:20:17 10° SSE 20:24:07 39° E 20:27:57 10° NNE
Cosmos 2123 Rocket 3.9 20:21:59 10° N 20:28:11 73° E 20:34:20 10° SSE
CZ-3C R/B 4.3 18:59:47 10° WSW 20:28:55 45° SSW 20:38:26 11° SE
Lacrosse 5 rocket 1.0 20:27:05 10° NW 20:30:48 67° NE 20:33:43 15° SE
ERS-1 Rocket 4.2 20:28:23 12° ESE 20:31:45 24° ENE 20:35:42 10° NNE
CZ-2D R/B 3.2 20:34:12 10° SSE 20:38:01 69° ENE 20:41:54 10° N
Helios 1B rocket 4.5 20:35:05 10° N 20:38:46 32° WNW 20:42:26 10° SW
FENGYUN 3A 3.6 20:34:08 10° SSE 20:39:28 78° ENE 20:44:50 10° N
EO 1 Delta rocket 4.0 20:35:15 10° NNE 20:40:03 76° E 20:45:46 10° S
CZ-4 DEB 4.2 20:40:10 19° E 20:40:52 20° ENE 20:43:14 10° NNE
Okean 2 4.4 20:36:59 10° NNW 20:41:02 50° W 20:45:01 10° SSW
Cosmos 1656 3.6 20:36:01 10° SSW 20:41:37 75° ESE 20:47:11 10° NNE
Resurs 01 Rocket 3.2 20:39:50 10° SSW 20:43:55 37° W 20:48:03 10° NNW
Cosmos 1500 3.5 20:40:53 10° SSE 20:44:25 41° E 20:48:00 10° NNE
Cosmos 1898 Rocket 3.8 20:44:15 10° N 20:49:22 48° ENE 20:52:53 19° SE
DELTA 2 R/B (1) 3.6 20:44:32 10° WNW 20:50:08 85° SSW 20:53:52 22° ESE
Cosmos 2227 Rocket 2.6 20:48:15 10° NNW 20:53:51 64° WSW 20:59:24 10° S
Cosmos 1340 4.3 20:52:40 10° NNE 20:55:15 18° ENE 20:55:15 18° ENE
Cosmos 1153 Rocket 4.4 20:50:37 10° S 20:56:48 80° E 21:02:57 10° N
USA 186 1.7 20:55:35 13° S 20:58:14 72° W 21:01:08 10° NNW
OAO 2 Rocket 3.3 20:53:59 10° W 20:58:58 69° S 21:01:47 26° ESE
Cosmos 468 Rocket 3.8 20:55:21 10° S 21:00:27 77° ESE 21:05:35 10° NNE
OTV 4 1.9 20:58:17 10° W 21:00:50 26° SSW 21:01:32 24° S
Cosmos 1939 Rocket 3.7 21:00:58 28° ESE 21:02:04 33° ENE 21:05:50 10° N
ALOS 3.0 20:59:41 10° S 21:04:14 53° W 21:08:49 10° NNW
Cosmos 841 Rocket 4.1 21:03:13 18° SSE 21:06:22 34° E 21:11:03 10° NE
Cosmos 1447 Rocket 4.5 21:00:49 10° N 21:07:11 85° E 21:13:32 10° S
Cosmos 2297 Rocket 2.5 21:03:18 10° NNW 21:08:55 67° WSW 21:13:57 13° S
Cosmos 1515 3.6 21:06:34 10° N 21:10:25 87° WSW 21:12:43 23° S
Cosmos 1814 Rocket 3.9 21:06:50 10° SSW 21:12:11 83° ESE 21:17:31 10° NNE
Cosmos 1802 Rocket 4.2 21:06:59 10° SSE 21:13:08 53° E 21:19:22 10° NNE
Tiangong 1 1.8 21:19:43 10° WNW 21:22:42 42° NNE 21:22:44 42° NNE
Cosmos 2016 Rocket 4.1 21:19:32 24° SSE 21:23:05 52° E 21:29:04 10° NNE
Cosmos 1825 Rocket 3.7 21:19:07 10° N 21:23:27 52° E 21:24:00 48° ESE
Cosmos 1743 2.6 21:23:18 44° S 21:24:25 74° E 21:28:20 10° N
ASTEX 1 4.0 21:20:47 10° NNE 21:25:07 35° E 21:25:07 35° E
RESURS DK-1 2.2 21:26:53 10° NNW 21:31:02 79° ENE 21:31:31 67° SE
Cosmos 1953 Rocket 3.8 21:30:07 10° N 21:34:19 50° ENE 21:34:19 50° ENE
H-2A R/B 2.3 21:35:02 47° NE 21:35:02 47° NE 21:38:42 10° N
Cosmos 2173 Rocket 4.0 21:28:51 10° S 21:35:14 89° W 21:41:36 10° N
Cosmos 1697 Rocket 3.7 21:36:43 10° SW 21:42:07 46° WNW 21:47:32 10° N
Envisat 2.9 21:43:51 49° S 21:45:17 86° W 21:50:24 10° NNW
Cosmos 2084 4.3 21:41:44 10° NW 21:45:39 41° WSW 21:46:23 38° SW
Cosmos 967 Rocket 4.4 21:43:12 10° NNW 21:49:32 69° ENE 21:50:51 54° ESE
Cosmos 2100 Rocket 4.4 21:44:36 10° SSW 21:50:48 61° W 21:56:59 10° N
Cosmos 1937 Rocket 3.8 21:45:37 10° NNW 21:50:51 64° WSW 21:52:28 43° SSW
Cosmos 1864 Rocket 4.4 21:50:50 55° ESE 21:51:25 57° E 21:57:23 10° NNE
SL-16 R/B 3.3 21:54:57 28° NE 21:54:57 28° NE 21:57:52 10° NE
Cosmos 1758 Rocket 3.9 21:48:43 10° N 21:52:16 55° NNE 21:52:16 55° NNE
Nimbus 7 Rocket 4.3 21:48:36 10° NNE 21:54:42 87° ESE 21:58:12 27° SSW
ARGOS 3.8 21:57:55 39° NE 21:57:55 39° NE 22:02:18 10° N
deb Chang Zheng 4 3.7 21:54:33 10° N 21:59:01 73° WNW 21:59:15 71° WSW
Cosmos 990 Rocket 4.1 21:56:16 10° NNW 22:01:30 71° WSW 22:02:09 63° SSW
Lacrosse 5 2.1 21:58:11 10° NW 22:03:11 60° SW 22:03:17 60° SW
Tsikada Rocket 4.0 21:57:26 10° N 22:03:49 62° E 22:04:10 61° E
Cosmos 1980 Rocket 3.1 22:00:13 10° SW 22:05:40 49° WNW 22:11:12 10° N
H-2A R/B 3.8 22:08:08 20° NE 22:08:08 20° NE 22:10:15 10° NNE
SPOT 5 2.9 22:07:52 82° NW 22:07:52 82° NW 22:12:33 10° NNW
MetOp-B 4.0 22:09:33 85° NE 22:09:33 85° NE 22:14:51 10° NNW
ERS-1 Rocket 4.2 22:08:23 27° SW 22:10:18 36° W 22:14:55 10° NNW
Cosmos 2058 Rocket 3.9 22:18:15 49° NNW 22:18:15 49° NNW 22:21:48 10° N
Cosmos 1725 Rocket 4.0 22:22:32 63° SW 22:23:32 76° W 22:29:48 10° N
Cosmos 2098 Rocket 4.3 22:22:30 37° SSW 22:25:14 65° W 22:31:03 10° N
SPOT 1/Viking Rocket 4.0 22:26:33 56° N 22:26:33 56° N 22:30:40 10° N
Terra 3.9 22:33:41 19° NNE 22:33:41 19° NNE 22:35:21 10° N
Cosmos 2263 Rocket 3.3 22:28:52 10° N 22:32:32 33° NNE 22:32:32 33° NNE
Cosmos 1125 Rocket 4.2 22:32:29 10° NNW 22:36:17 49° NNW 22:36:17 49° NNW
Cosmos 2322 Rocket 2.8 22:40:22 51° N 22:40:22 51° N 22:44:44 10° NNE
BREEZE-M DEB (TANK) 4.1 22:32:51 10° W 22:42:30 43° NNW 22:43:19 39° N
Cosmos 2233 Rocket 4.3 22:48:18 62° N 22:48:18 62° N 22:53:27 10° N
USA 215 3.9 22:53:25 43° NE 22:53:25 43° NE 22:59:32 10° NW
SL-16 R/B 4.1 23:36:44 24° WNW 23:36:47 24° WNW 23:41:21 10° N
H-2A R/B 4.5 23:48:47 17° NW 23:48:47 17° NW 23:50:06 10° NNW
Cosmos 2360 Rocket 4.4 23:53:36 21° N 23:53:36 21° N 23:55:29 10° N
